| time (UTC) | temp C | wind direction | speed KPH | gust KPH | rain 1hr cm | rain 24hr cm | rain mn cm | humidity % | barometer mb |
| 20260507225103 | 8 | 141 | 3.2 | 4.8 | 0.00 | 0.00 | 0.00 | 82 | 1015.9 |
| 20260507224604 | 8 | 131 | 1.6 | 3.2 | 0.00 | 0.00 | 0.00 | 82 | 1015.9 |
| 20260507224104 | 8 | 132 | 1.6 | 3.2 | 0.00 | 0.00 | 0.00 | 82 | 1016.3 |
| 20260507223603 | 8 | 141 | 0.0 | 1.6 | 0.00 | 0.00 | 0.00 | 82 | 1015.9 |
| 20260507223103 | 8 | 133 | 0.0 | 1.6 | 0.00 | 0.00 | 0.00 | 82 | 1015.9 |
| 20260507222603 | 8 | 143 | 1.6 | 1.6 | 0.00 | 0.00 | 0.00 | 81 | 1016.3 |
| 20260507222103 | 8 | 136 | 0.0 | 3.2 | 0.00 | 0.00 | 0.00 | 81 | 1016.3 |
| 20260507221603 | 8 | 124 | 1.6 | 3.2 | 0.00 | 0.00 | 0.00 | 80 | 1016.3 |
| 20260507221103 | 8 | 135 | 1.6 | 1.6 | 0.00 | 0.00 | 0.00 | 80 | 1016.3 |
| 20260507220604 | 8 | 143 | 1.6 | 1.6 | 0.00 | 0.00 | 0.00 | 79 | 1015.9 |
| 20260507215604 | 9 | 133 | 1.6 | 3.2 | 0.00 | 0.00 | 0.00 | 79 | 1016.3 |
| 20260507215106 | 9 | 134 | 1.6 | 1.6 | 0.00 | 0.00 | 0.00 | 78 | 1016.3 |
| 20260507214603 | 9 | 139 | 1.6 | 3.2 | 0.00 | 0.00 | 0.00 | 78 | 1016.3 |
| 20260507214103 | 9 | 137 | 1.6 | 3.2 | 0.00 | 0.00 | 0.00 | 78 | 1016.3 |
| 20260507213605 | 9 | 160 | 1.6 | 3.2 | 0.00 | 0.00 | 0.00 | 77 | 1016.3 |
| 20260507213104 | 10 | 147 | 1.6 | 3.2 | 0.00 | 0.00 | 0.00 | 77 | 1016.3 |
| 20260507212603 | 10 | 148 | 1.6 | 4.8 | 0.00 | 0.00 | 0.00 | 77 | 1016.3 |
| 20260507212103 | 10 | 141 | 1.6 | 3.2 | 0.00 | 0.00 | 0.00 | 78 | 1016.6 |
| 20260507211603 | 10 | 140 | 0.0 | 1.6 | 0.00 | 0.00 | 0.00 | 77 | 1016.3 |
| 20260507211104 | 10 | 152 | 1.6 | 4.8 | 0.00 | 0.00 | 0.00 | 77 | 1016.3 |
| 20260507210603 | 10 | 135 | 1.6 | 3.2 | 0.00 | 0.00 | 0.00 | 77 | 1016.3 |
| 20260507210103 | 10 | 136 | 0.0 | 4.8 | 0.00 | 0.00 | 0.00 | 77 | 1016.3 |
| 20260507205603 | 10 | 140 | 1.6 | 1.6 | 0.00 | 0.00 | 0.00 | 76 | 1015.9 |
| 20260507205104 | 10 | 140 | 1.6 | 3.2 | 0.00 | 0.00 | 0.00 | 76 | 1015.9 |
| 20260507204604 | 10 | 143 | 0.0 | 3.2 | 0.00 | 0.00 | 0.00 | 75 | 1015.9 |
| 20260507204105 | 10 | 141 | 0.0 | 0.0 | 0.00 | 0.00 | 0.00 | 75 | 1015.9 |
| 20260507203604 | 10 | 144 | 1.6 | 3.2 | 0.00 | 0.00 | 0.00 | 74 | 1015.9 |
| 20260507203103 | 10 | 137 | 0.0 | 0.0 | 0.00 | 0.00 | 0.00 | 74 | 1015.6 |
| 20260507202603 | 10 | 137 | 1.6 | 1.6 | 0.00 | 0.00 | 0.00 | 74 | 1015.9 |
| 20260507202103 | 10 | 137 | 0.0 | 1.6 | 0.00 | 0.00 | 0.00 | 74 | 1015.6 |
| 20260507201604 | 10 | 142 | 0.0 | 1.6 | 0.00 | 0.00 | 0.00 | 74 | 1015.6 |
| 20260507201103 | 11 | 140 | 0.0 | 3.2 | 0.00 | 0.00 | 0.00 | 74 | 1015.6 |
| 20260507200603 | 11 | 149 | 1.6 | 3.2 | 0.00 | 0.00 | 0.00 | 74 | 1015.6 |
| 20260507200103 | 11 | 125 | 4.8 | 8.0 | 0.00 | 0.00 | 0.00 | 73 | 1015.2 |
| 20260507195603 | 11 | 125 | 1.6 | 11.3 | 0.00 | 0.00 | 0.00 | 73 | 1015.2 |
| 20260507195104 | 11 | 182 | 1.6 | 3.2 | 0.00 | 0.00 | 0.00 | 72 | 1015.2 |
| 20260507194603 | 11 | 167 | 1.6 | 3.2 | 0.00 | 0.00 | 0.00 | 72 | 1015.2 |
| 20260507194103 | 11 | 150 | 1.6 | 3.2 | 0.00 | 0.00 | 0.00 | 72 | 1015.2 |
| 20260507193603 | 11 | 170 | 3.2 | 8.0 | 0.00 | 0.00 | 0.00 | 72 | 1014.9 |
| 20260507193103 | 11 | 91 | 1.6 | 1.6 | 0.00 | 0.00 | 0.00 | 71 | 1014.9 |
| 20260507192603 | 12 | 136 | 1.6 | 4.8 | 0.00 | 0.00 | 0.00 | 71 | 1015.2 |
| 20260507192104 | 12 | 178 | 3.2 | 3.2 | 0.00 | 0.00 | 0.00 | 71 | 1014.9 |
| 20260507191605 | 12 | 204 | 1.6 | 4.8 | 0.00 | 0.00 | 0.00 | 70 | 1014.9 |
| 20260507191103 | 12 | 179 | 3.2 | 11.3 | 0.00 | 0.00 | 0.00 | 70 | 1014.9 |
| 20260507190603 | 12 | 172 | 1.6 | 4.8 | 0.00 | 0.00 | 0.00 | 69 | 1014.9 |
| 20260507190104 | 12 | 194 | 0.0 | 1.6 | 0.00 | 0.00 | 0.00 | 69 | 1015.2 |
| 20260507185603 | 12 | 149 | 4.8 | 8.0 | 0.00 | 0.00 | 0.00 | 68 | 1014.6 |
| 20260507185103 | 12 | 167 | 0.0 | 1.6 | 0.00 | 0.00 | 0.00 | 68 | 1014.9 |
| 20260507184603 | 12 | 192 | 0.0 | 1.6 | 0.00 | 0.00 | 0.00 | 67 | 1014.9 |
| 20260507184103 | 13 | 212 | 0.0 | 0.0 | 0.00 | 0.00 | 0.00 | 67 | 1014.9 |
| 20260507183603 | 13 | 204 | 1.6 | 1.6 | 0.00 | 0.00 | 0.00 | 67 | 1014.9 |
| 20260507183104 | 13 | 203 | 0.0 | 3.2 | 0.00 | 0.00 | 0.00 | 66 | 1014.9 |
| 20260507182603 | 13 | 198 | 1.6 | 8.0 | 0.00 | 0.00 | 0.00 | 66 | 1014.9 |
| 20260507182104 | 13 | 164 | 3.2 | 4.8 | 0.00 | 0.00 | 0.00 | 66 | 1014.9 |
| 20260507181603 | 13 | 184 | 1.6 | 1.6 | 0.00 | 0.00 | 0.00 | 66 | 1014.6 |
| 20260507181104 | 13 | 195 | 1.6 | 4.8 | 0.00 | 0.00 | 0.00 | 65 | 1014.9 |
| 20260507180604 | 13 | 211 | 1.6 | 8.0 | 0.00 | 0.00 | 0.00 | 65 | 1014.9 |
| 20260507180104 | 13 | 213 | 4.8 | 9.7 | 0.00 | 0.00 | 0.00 | 64 | 1014.6 |
| 20260507175604 | 13 | 244 | 3.2 | 9.7 | 0.00 | 0.00 | 0.00 | 64 | 1014.6 |
| 20260507175104 | 13 | 204 | 4.8 | 11.3 | 0.00 | 0.00 | 0.00 | 63 | 1014.6 |
| 20260507174604 | 14 | 219 | 6.4 | 9.7 | 0.00 | 0.00 | 0.00 | 63 | 1014.6 |
| 20260507174103 | 14 | 185 | 3.2 | 4.8 | 0.00 | 0.00 | 0.00 | 62 | 1014.9 |
| 20260507173603 | 14 | 154 | 3.2 | 9.7 | 0.00 | 0.00 | 0.00 | 62 | 1014.6 |
| 20260507173105 | 14 | 200 | 0.0 | 4.8 | 0.00 | 0.00 | 0.00 | 62 | 1014.6 |
| 20260507172603 | 14 | 203 | 3.2 | 4.8 | 0.00 | 0.00 | 0.00 | 60 | 1014.6 |
| 20260507172106 | 14 | 174 | 4.8 | 9.7 | 0.00 | 0.00 | 0.00 | 60 | 1014.6 |
| 20260507171603 | 14 | 178 | 3.2 | 4.8 | 0.00 | 0.00 | 0.00 | 61 | 1014.6 |
| 20260507171103 | 14 | 155 | 3.2 | 4.8 | 0.00 | 0.00 | 0.00 | 61 | 1014.6 |
| 20260507170603 | 14 | 179 | 3.2 | 8.0 | 0.00 | 0.00 | 0.00 | 60 | 1014.6 |
| 20260507170103 | 14 | 143 | 3.2 | 11.3 | 0.00 | 0.00 | 0.00 | 60 | 1014.6 |
| 20260507165604 | 14 | 205 | 3.2 | 4.8 | 0.00 | 0.00 | 0.00 | 61 | 1014.9 |
| 20260507165104 | 14 | 205 | 4.8 | 8.0 | 0.00 | 0.00 | 0.00 | 61 | 1014.6 |
| 20260507164604 | 14 | 195 | 8.0 | 12.9 | 0.00 | 0.00 | 0.00 | 60 | 1014.6 |
| 20260507164105 | 14 | 145 | 4.8 | 12.9 | 0.00 | 0.00 | 0.00 | 60 | 1014.6 |
| 20260507163604 | 14 | 172 | 1.6 | 11.3 | 0.00 | 0.00 | 0.00 | 60 | 1014.6 |
| 20260507163104 | 14 | 193 | 1.6 | 8.0 | 0.00 | 0.00 | 0.00 | 60 | 1014.6 |
| 20260507162604 | 14 | 185 | 3.2 | 8.0 | 0.00 | 0.00 | 0.00 | 60 | 1014.6 |
| 20260507162103 | 14 | 130 | 1.6 | 4.8 | 0.00 | 0.00 | 0.00 | 60 | 1014.6 |
| 20260507161604 | 14 | 156 | 6.4 | 12.9 | 0.00 | 0.00 | 0.00 | 60 | 1014.6 |
| 20260507161104 | 14 | 89 | 3.2 | 9.7 | 0.00 | 0.00 | 0.00 | 60 | 1014.6 |
| 20260507160603 | 14 | 145 | 3.2 | 8.0 | 0.00 | 0.00 | 0.00 | 60 | 1014.6 |
| 20260507160104 | 14 | 169 | 3.2 | 12.9 | 0.00 | 0.00 | 0.00 | 60 | 1014.6 |
| 20260507155603 | 14 | 137 | 4.8 | 11.3 | 0.00 | 0.00 | 0.00 | 60 | 1014.6 |
| 20260507155103 | 14 | 175 | 1.6 | 12.9 | 0.00 | 0.00 | 0.00 | 60 | 1014.6 |
| 20260507154603 | 15 | 124 | 4.8 | 11.3 | 0.00 | 0.00 | 0.00 | 60 | 1014.6 |
| 20260507154103 | 15 | 157 | 6.4 | 9.7 | 0.00 | 0.00 | 0.00 | 60 | 1014.6 |
| 20260507153604 | 15 | 192 | 8.0 | 12.9 | 0.00 | 0.00 | 0.00 | 60 | 1014.6 |
| 20260507153103 | 15 | 152 | 1.6 | 3.2 | 0.00 | 0.00 | 0.00 | 60 | 1014.6 |
| 20260507152604 | 14 | 145 | 3.2 | 11.3 | 0.00 | 0.00 | 0.00 | 60 | 1014.9 |
| 20260507152103 | 14 | 184 | 0.0 | 3.2 | 0.00 | 0.00 | 0.00 | 61 | 1014.9 |
| 20260507151604 | 14 | 134 | 3.2 | 4.8 | 0.00 | 0.00 | 0.00 | 61 | 1014.9 |
| 20260507151103 | 13 | 161 | 3.2 | 9.7 | 0.00 | 0.00 | 0.00 | 60 | 1014.6 |
| 20260507150603 | 13 | 189 | 4.8 | 8.0 | 0.00 | 0.00 | 0.00 | 60 | 1014.9 |
| 20260507150107 | 13 | 179 | 0.0 | 4.8 | 0.00 | 0.00 | 0.00 | 60 | 1014.9 |
| 20260507145604 | 13 | 146 | 1.6 | 12.9 | 0.00 | 0.00 | 0.00 | 59 | 1014.9 |
| 20260507145103 | 13 | 169 | 0.0 | 8.0 | 0.00 | 0.00 | 0.00 | 60 | 1014.9 |
| 20260507144603 | 13 | 149 | 4.8 | 8.0 | 0.00 | 0.00 | 0.00 | 59 | 1014.9 |
| 20260507144104 | 14 | 180 | 1.6 | 4.8 | 0.00 | 0.00 | 0.00 | 59 | 1014.9 |
| 20260507143604 | 14 | 135 | 1.6 | 8.0 | 0.00 | 0.00 | 0.00 | 58 | 1014.9 |
| 20260507143104 | 14 | 176 | 6.4 | 9.7 | 0.00 | 0.00 | 0.00 | 58 | 1014.9 |
| 20260507142603 | 14 | 130 | 3.2 | 4.8 | 0.00 | 0.00 | 0.00 | 58 | 1014.9 |
| 20260507142104 | 15 | 169 | 1.6 | 8.0 | 0.00 | 0.00 | 0.00 | 57 | 1014.9 |
| 20260507141604 | 15 | 138 | 0.0 | 3.2 | 0.00 | 0.00 | 0.00 | 57 | 1014.9 |
| 20260507141104 | 14 | 144 | 0.0 | 8.0 | 0.00 | 0.00 | 0.00 | 56 | 1014.9 |
| 20260507140604 | 14 | 158 | 0.0 | 4.8 | 0.00 | 0.00 | 0.00 | 56 | 1014.6 |
| 20260507140104 | 14 | 173 | 0.0 | 1.6 | 0.00 | 0.00 | 0.00 | 56 | 1014.9 |
| 20260507135604 | 15 | 141 | 3.2 | 8.0 | 0.00 | 0.00 | 0.00 | 55 | 1014.9 |
| 20260507135103 | 15 | 128 | 1.6 | 11.3 | 0.00 | 0.00 | 0.00 | 55 | 1015.2 |
| 20260507134603 | 15 | 208 | 1.6 | 8.0 | 0.00 | 0.00 | 0.00 | 56 | 1014.9 |
| 20260507134104 | 15 | 168 | 1.6 | 3.2 | 0.00 | 0.00 | 0.00 | 54 | 1014.9 |
| 20260507133604 | 15 | 117 | 6.4 | 9.7 | 0.00 | 0.00 | 0.00 | 56 | 1014.9 |
| 20260507133104 | 15 | 135 | 4.8 | 11.3 | 0.00 | 0.00 | 0.00 | 55 | 1014.9 |
| 20260507132604 | 15 | 122 | 4.8 | 12.9 | 0.00 | 0.00 | 0.00 | 54 | 1014.9 |
| 20260507132103 | 16 | 90 | 3.2 | 4.8 | 0.00 | 0.00 | 0.00 | 55 | 1014.9 |
| 20260507131604 | 16 | 104 | 8.0 | 11.3 | 0.00 | 0.00 | 0.00 | 54 | 1014.9 |
| 20260507131103 | 15 | 121 | 3.2 | 12.9 | 0.00 | 0.00 | 0.00 | 56 | 1014.9 |
| 20260507130604 | 15 | 241 | 3.2 | 9.7 | 0.00 | 0.00 | 0.00 | 55 | 1014.9 |
| 20260507130104 | 15 | 58 | 0.0 | 11.3 | 0.00 | 0.00 | 0.00 | 56 | 1015.2 |
| 20260507125604 | 15 | 156 | 9.7 | 12.9 | 0.00 | 0.00 | 0.00 | 56 | 1014.9 |
| 20260507125104 | 15 | 139 | 9.7 | 11.3 | 0.00 | 0.00 | 0.00 | 56 | 1014.9 |
| 20260507124603 | 15 | 137 | 1.6 | 3.2 | 0.00 | 0.00 | 0.00 | 55 | 1015.2 |
| 20260507124103 | 15 | 119 | 0.0 | 1.6 | 0.00 | 0.00 | 0.00 | 55 | 1015.2 |
| 20260507123603 | 14 | 71 | 1.6 | 4.8 | 0.00 | 0.00 | 0.00 | 53 | 1015.2 |
| 20260507123106 | 14 | 49 | 1.6 | 3.2 | 0.00 | 0.00 | 0.00 | 54 | 1015.2 |
| 20260507122604 | 14 | 67 | 1.6 | 4.8 | 0.00 | 0.00 | 0.00 | 54 | 1015.2 |
| 20260507122104 | 15 | 183 | 4.8 | 9.7 | 0.00 | 0.00 | 0.00 | 54 | 1015.2 |
| 20260507121603 | 15 | 201 | 0.0 | 3.2 | 0.00 | 0.00 | 0.00 | 55 | 1015.6 |
| 20260507121103 | 15 | 103 | 1.6 | 3.2 | 0.00 | 0.00 | 0.00 | 57 | 1015.2 |
| 20260507120604 | 15 | 70 | 1.6 | 3.2 | 0.00 | 0.00 | 0.00 | 58 | 1015.2 |
| 20260507120104 | 15 | 183 | 1.6 | 3.2 | 0.00 | 0.00 | 0.00 | 60 | 1015.2 |
| 20260507115604 | 14 | 17 | 1.6 | 3.2 | 0.00 | 0.00 | 0.00 | 61 | 1015.2 |
| 20260507115104 | 13 | 140 | 1.6 | 8.0 | 0.00 | 0.00 | 0.00 | 61 | 1015.6 |
| 20260507114603 | 13 | 8 | 1.6 | 8.0 | 0.00 | 0.00 | 0.00 | 63 | 1015.6 |
| 20260507114104 | 13 | 166 | 1.6 | 4.8 | 0.00 | 0.00 | 0.00 | 63 | 1015.6 |
| 20260507113604 | 13 | 147 | 0.0 | 3.2 | 0.00 | 0.00 | 0.00 | 64 | 1015.2 |
| 20260507113104 | 13 | 158 | 1.6 | 3.2 | 0.00 | 0.00 | 0.00 | 65 | 1015.6 |
| 20260507112604 | 13 | 200 | 0.0 | 3.2 | 0.00 | 0.00 | 0.00 | 65 | 1015.6 |
| 20260507112103 | 13 | 144 | 4.8 | 8.0 | 0.00 | 0.00 | 0.00 | 65 | 1015.6 |
| 20260507111603 | 13 | 158 | 3.2 | 4.8 | 0.00 | 0.00 | 0.00 | 66 | 1015.6 |
| 20260507111106 | 12 | 167 | 0.0 | 4.8 | 0.00 | 0.00 | 0.00 | 67 | 1015.6 |
| 20260507110603 | 12 | 162 | 0.0 | 3.2 | 0.00 | 0.00 | 0.00 | 67 | 1015.6 |
| 20260507110104 | 12 | 181 | 0.0 | 4.8 | 0.00 | 0.00 | 0.00 | 67 | 1015.6 |
| 20260507105609 | 12 | 172 | 4.8 | 4.8 | 0.00 | 0.00 | 0.00 | 67 | 1015.6 |
| 20260507105103 | 12 | 129 | 3.2 | 4.8 | 0.00 | 0.00 | 0.00 | 67 | 1015.9 |
| 20260507104603 | 12 | 157 | 0.0 | 3.2 | 0.00 | 0.00 | 0.00 | 66 | 1015.9 |
| 20260507104103 | 12 | 157 | 4.8 | 8.0 | 0.00 | 0.00 | 0.00 | 66 | 1015.6 |
| 20260507103604 | 12 | 173 | 4.8 | 11.3 | 0.00 | 0.00 | 0.00 | 65 | 1015.9 |
| 20260507103104 | 12 | 187 | 3.2 | 9.7 | 0.00 | 0.00 | 0.00 | 65 | 1015.9 |
| 20260507102603 | 12 | 132 | 3.2 | 4.8 | 0.00 | 0.00 | 0.00 | 65 | 1015.9 |
| 20260507102103 | 12 | 179 | 1.6 | 3.2 | 0.00 | 0.00 | 0.00 | 65 | 1015.9 |
| 20260507101603 | 12 | 201 | 3.2 | 3.2 | 0.00 | 0.00 | 0.00 | 65 | 1015.9 |
| 20260507101104 | 12 | 160 | 0.0 | 3.2 | 0.00 | 0.00 | 0.00 | 64 | 1015.6 |
| 20260507100604 | 12 | 167 | 1.6 | 1.6 | 0.00 | 0.00 | 0.00 | 65 | 1015.6 |
| 20260507100103 | 12 | 174 | 1.6 | 1.6 | 0.00 | 0.00 | 0.00 | 65 | 1015.9 |
| 20260507095603 | 12 | 164 | 0.0 | 1.6 | 0.00 | 0.00 | 0.00 | 64 | 1015.6 |
| 20260507095104 | 12 | 160 | 0.0 | 3.2 | 0.00 | 0.00 | 0.00 | 65 | 1015.6 |
| 20260507094604 | 12 | 160 | 3.2 | 4.8 | 0.00 | 0.00 | 0.00 | 65 | 1015.6 |
| 20260507094104 | 13 | 172 | 1.6 | 4.8 | 0.00 | 0.00 | 0.00 | 64 | 1015.6 |
| 20260507093603 | 13 | 177 | 3.2 | 3.2 | 0.00 | 0.00 | 0.00 | 64 | 1015.6 |
| 20260507093104 | 13 | 139 | 6.4 | 8.0 | 0.00 | 0.00 | 0.00 | 64 | 1015.6 |
| 20260507092604 | 13 | 211 | 1.6 | 3.2 | 0.00 | 0.00 | 0.00 | 63 | 1015.6 |
| 20260507092104 | 13 | 152 | 1.6 | 4.8 | 0.00 | 0.00 | 0.00 | 61 | 1015.6 |
| 20260507091603 | 13 | 163 | 4.8 | 9.7 | 0.00 | 0.00 | 0.00 | 62 | 1015.6 |
| 20260507091104 | 13 | 128 | 3.2 | 11.3 | 0.00 | 0.00 | 0.00 | 63 | 1015.6 |
| 20260507090603 | 13 | 153 | 1.6 | 4.8 | 0.00 | 0.00 | 0.00 | 66 | 1015.6 |
| 20260507090103 | 13 | 87 | 1.6 | 3.2 | 0.00 | 0.00 | 0.00 | 67 | 1015.6 |
| 20260507085603 | 13 | 142 | 1.6 | 8.0 | 0.00 | 0.00 | 0.00 | 68 | 1015.6 |
| 20260507085104 | 12 | 179 | 1.6 | 3.2 | 0.00 | 0.00 | 0.00 | 69 | 1015.6 |
| 20260507084604 | 12 | 87 | 1.6 | 4.8 | 0.00 | 0.00 | 0.00 | 71 | 1015.6 |
| 20260507084103 | 12 | 162 | 1.6 | 9.7 | 0.00 | 0.00 | 0.00 | 72 | 1015.6 |
| 20260507083604 | 12 | 222 | 1.6 | 3.2 | 0.00 | 0.00 | 0.00 | 73 | 1015.6 |
| 20260507083104 | 11 | 166 | 0.0 | 3.2 | 0.00 | 0.00 | 0.00 | 72 | 1015.6 |
| 20260507082604 | 12 | 22 | 1.6 | 3.2 | 0.00 | 0.00 | 0.00 | 74 | 1015.6 |
| 20260507082103 | 12 | 207 | 4.8 | 8.0 | 0.00 | 0.00 | 0.00 | 74 | 1015.6 |
| 20260507081604 | 12 | 61 | 1.6 | 4.8 | 0.00 | 0.00 | 0.00 | 73 | 1015.6 |
| 20260507081103 | 11 | 163 | 1.6 | 4.8 | 0.00 | 0.00 | 0.00 | 76 | 1015.6 |
| 20260507080603 | 11 | 350 | 1.6 | 3.2 | 0.00 | 0.00 | 0.00 | 76 | 1015.6 |
| 20260507080103 | 11 | 61 | 1.6 | 3.2 | 0.00 | 0.00 | 0.00 | 78 | 1015.9 |
| 20260507075603 | 11 | 145 | 1.6 | 1.6 | 0.00 | 0.00 | 0.00 | 79 | 1015.6 |
| 20260507075104 | 11 | 143 | 3.2 | 4.8 | 0.00 | 0.00 | 0.00 | 79 | 1015.6 |
| 20260507074606 | 10 | 174 | 0.0 | 3.2 | 0.00 | 0.00 | 0.00 | 80 | 1015.6 |
| 20260507074103 | 10 | 159 | 1.6 | 4.8 | 0.00 | 0.00 | 0.00 | 80 | 1015.6 |
| 20260507073603 | 10 | 153 | 0.0 | 1.6 | 0.00 | 0.00 | 0.00 | 81 | 1015.6 |
| 20260507073103 | 10 | 151 | 1.6 | 4.8 | 0.00 | 0.00 | 0.00 | 81 | 1015.6 |
| 20260507072605 | 10 | 55 | 1.6 | 1.6 | 0.00 | 0.00 | 0.00 | 82 | 1015.6 |
| 20260507072103 | 9 | 11 | 0.0 | 1.6 | 0.00 | 0.00 | 0.00 | 82 | 1015.6 |
| 20260507071604 | 9 | 169 | 0.0 | 0.0 | 0.00 | 0.00 | 0.00 | 82 | 1015.6 |
| 20260507071103 | 8 | 180 | 1.6 | 1.6 | 0.00 | 0.00 | 0.00 | 82 | 1015.6 |
| 20260507070604 | 8 | 61 | 1.6 | 3.2 | 0.00 | 0.00 | 0.00 | 82 | 1015.6 |
| 20260507065603 | 8 | 37 | 0.0 | 1.6 | 0.00 | 0.00 | 0.00 | 81 | 1015.6 |
| 20260507065103 | 8 | 37 | 0.0 | 0.0 | 0.00 | 0.00 | 0.00 | 81 | 1015.6 |
| 20260507064603 | 8 | 37 | 0.0 | 1.6 | 0.00 | 0.00 | 0.00 | 81 | 1015.6 |
| 20260507064103 | 8 | 37 | 0.0 | 0.0 | 0.00 | 0.00 | 0.00 | 81 | 1015.6 |
| 20260507063603 | 8 | 37 | 0.0 | 0.0 | 0.00 | 0.00 | 0.00 | 81 | 1015.6 |
| 20260507063103 | 8 | 37 | 1.6 | 1.6 | 0.00 | 0.00 | 0.00 | 81 | 1015.6 |
| 20260507062603 | 8 | 37 | 0.0 | 0.0 | 0.00 | 0.00 | 0.00 | 82 | 1015.6 |
| 20260507062103 | 8 | 37 | 0.0 | 0.0 | 0.00 | 0.00 | 0.00 | 83 | 1015.6 |
| 20260507061603 | 7 | 37 | 0.0 | 1.6 | 0.00 | 0.00 | 0.00 | 83 | 1015.6 |
| 20260507061105 | 7 | 37 | 0.0 | 0.0 | 0.00 | 0.00 | 0.00 | 84 | 1015.6 |
| 20260507060604 | 7 | 37 | 0.0 | 0.0 | 0.00 | 0.00 | 0.00 | 86 | 1015.2 |
| 20260507060104 | 7 | 37 | 0.0 | 0.0 | 0.00 | 0.00 | 0.00 | 87 | 1015.2 |
| 20260507055603 | 6 | 37 | 0.0 | 0.0 | 0.00 | 0.00 | 0.00 | 86 | 1015.6 |
| 20260507055103 | 5 | 37 | 0.0 | 0.0 | 0.00 | 0.00 | 0.00 | 86 | 1015.6 |
| 20260507054603 | 5 | 37 | 0.0 | 0.0 | 0.00 | 0.00 | 0.00 | 86 | 1015.6 |
| 20260507054104 | 5 | 37 | 0.0 | 0.0 | 0.00 | 0.00 | 0.00 | 86 | 1015.6 |
| 20260507053605 | 5 | 37 | 0.0 | 0.0 | 0.00 | 0.00 | 0.00 | 86 | 1015.6 |
| 20260507053104 | 5 | 37 | 0.0 | 0.0 | 0.00 | 0.00 | 0.00 | 85 | 1015.6 |
| 20260507052603 | 5 | 37 | 0.0 | 0.0 | 0.00 | 0.00 | 0.00 | 85 | 1014.9 |
| 20260507052105 | 5 | 37 | 0.0 | 0.0 | 0.00 | 0.00 | 0.00 | 85 | 1015.6 |
| 20260507051603 | 5 | 37 | 0.0 | 0.0 | 0.00 | 0.00 | 0.00 | 85 | 1015.2 |
| 20260507051104 | 5 | 37 | 0.0 | 0.0 | 0.00 | 0.00 | 0.00 | 85 | 1015.2 |
| 20260507050603 | 5 | 37 | 0.0 | 0.0 | 0.00 | 0.00 | 0.00 | 85 | 1015.2 |
| 20260507050104 | 5 | 37 | 0.0 | 0.0 | 0.00 | 0.00 | 0.00 | 85 | 1015.2 |
| 20260507045604 | 5 | 37 | 0.0 | 0.0 | 0.00 | 0.00 | 0.00 | 85 | 1015.2 |
| 20260507045103 | 5 | 37 | 0.0 | 0.0 | 0.00 | 0.00 | 0.00 | 84 | 1015.2 |
| 20260507044603 | 5 | 37 | 0.0 | 0.0 | 0.00 | 0.00 | 0.00 | 84 | 1015.2 |
| 20260507044104 | 5 | 37 | 0.0 | 0.0 | 0.00 | 0.00 | 0.00 | 84 | 1014.9 |
| 20260507043603 | 5 | 37 | 0.0 | 0.0 | 0.00 | 0.00 | 0.00 | 84 | 1015.2 |
| 20260507043103 | 5 | 37 | 0.0 | 0.0 | 0.00 | 0.00 | 0.00 | 84 | 1015.2 |
| 20260507042603 | 5 | 37 | 0.0 | 0.0 | 0.00 | 0.00 | 0.00 | 84 | 1014.9 |
| 20260507042103 | 5 | 37 | 0.0 | 0.0 | 0.00 | 0.00 | 0.00 | 83 | 1015.2 |
| 20260507041603 | 5 | 37 | 0.0 | 0.0 | 0.00 | 0.00 | 0.00 | 83 | 1014.9 |
| 20260507041103 | 6 | 37 | 0.0 | 0.0 | 0.00 | 0.00 | 0.00 | 83 | 1015.2 |
| 20260507040604 | 6 | 37 | 0.0 | 0.0 | 0.00 | 0.00 | 0.00 | 83 | 1015.2 |
| 20260507040104 | 6 | 37 | 0.0 | 0.0 | 0.00 | 0.00 | 0.00 | 83 | 1014.9 |
| 20260507035604 | 6 | 37 | 0.0 | 0.0 | 0.00 | 0.00 | 0.00 | 83 | 1014.9 |
| 20260507035103 | 6 | 37 | 0.0 | 0.0 | 0.00 | 0.00 | 0.00 | 83 | 1014.9 |
| 20260507034603 | 6 | 37 | 0.0 | 0.0 | 0.00 | 0.00 | 0.00 | 83 | 1014.9 |
| 20260507034104 | 6 | 37 | 0.0 | 0.0 | 0.00 | 0.00 | 0.00 | 82 | 1014.9 |
| 20260507033606 | 6 | 37 | 0.0 | 0.0 | 0.00 | 0.00 | 0.00 | 82 | 1014.9 |
| 20260507033103 | 6 | 37 | 0.0 | 0.0 | 0.00 | 0.00 | 0.00 | 82 | 1014.9 |
| 20260507032603 | 6 | 37 | 0.0 | 0.0 | 0.00 | 0.00 | 0.00 | 82 | 1014.9 |
| 20260507032103 | 6 | 37 | 0.0 | 0.0 | 0.00 | 0.00 | 0.00 | 83 | 1014.6 |
| 20260507031605 | 6 | 37 | 0.0 | 1.6 | 0.00 | 0.00 | 0.00 | 83 | 1014.9 |
| 20260507031103 | 6 | 37 | 0.0 | 1.6 | 0.00 | 0.00 | 0.00 | 82 | 1014.9 |
| 20260507030604 | 6 | 37 | 0.0 | 1.6 | 0.00 | 0.00 | 0.00 | 82 | 1014.6 |
| 20260507025604 | 7 | 20 | 0.0 | 1.6 | 0.00 | 0.00 | 0.00 | 82 | 1014.9 |
| 20260507025103 | 7 | 19 | 0.0 | 0.0 | 0.00 | 0.00 | 0.00 | 81 | 1014.9 |
| 20260507024610 | 7 | 19 | 0.0 | 0.0 | 0.00 | 0.00 | 0.00 | 81 | 1014.9 |
| 20260507024105 | 7 | 19 | 0.0 | 0.0 | 0.00 | 0.00 | 0.00 | 82 | 1014.6 |
| 20260507023604 | 7 | 19 | 0.0 | 0.0 | 0.00 | 0.00 | 0.00 | 82 | 1014.9 |
| 20260507023103 | 7 | 29 | 0.0 | 1.6 | 0.00 | 0.00 | 0.00 | 81 | 1014.6 |
| 20260507022603 | 7 | 18 | 0.0 | 1.6 | 0.00 | 0.00 | 0.00 | 81 | 1014.6 |
| 20260507022104 | 7 | 28 | 0.0 | 1.6 | 0.00 | 0.00 | 0.00 | 81 | 1014.9 |
| 20260507021603 | 7 | 21 | 0.0 | 3.2 | 0.00 | 0.00 | 0.00 | 81 | 1014.6 |
| 20260507021104 | 7 | 18 | 1.6 | 4.8 | 0.00 | 0.00 | 0.00 | 81 | 1014.6 |
| 20260507020604 | 7 | 35 | 0.0 | 0.0 | 0.00 | 0.00 | 0.00 | 80 | 1014.6 |
| 20260507020103 | 7 | 36 | 0.0 | 0.0 | 0.00 | 0.00 | 0.00 | 80 | 1014.6 |
| 20260507015604 | 7 | 36 | 0.0 | 0.0 | 0.00 | 0.00 | 0.00 | 81 | 1014.6 |
| 20260507015104 | 7 | 19 | 0.0 | 1.6 | 0.00 | 0.00 | 0.00 | 81 | 1014.6 |
| 20260507014604 | 7 | 42 | 0.0 | 1.6 | 0.00 | 0.00 | 0.00 | 80 | 1014.6 |
| 20260507014105 | 7 | 20 | 0.0 | 4.8 | 0.00 | 0.00 | 0.00 | 81 | 1014.6 |
| 20260507013603 | 7 | 14 | 1.6 | 3.2 | 0.00 | 0.00 | 0.00 | 79 | 1014.6 |
| 20260507013103 | 7 | 3 | 0.0 | 1.6 | 0.00 | 0.00 | 0.00 | 78 | 1014.6 |
| 20260507012603 | 7 | 3 | 0.0 | 0.0 | 0.00 | 0.00 | 0.00 | 78 | 1014.6 |
| 20260507012104 | 7 | 3 | 1.6 | 1.6 | 0.00 | 0.00 | 0.00 | 78 | 1014.6 |
| 20260507011603 | 7 | 17 | 1.6 | 1.6 | 0.00 | 0.00 | 0.00 | 77 | 1014.6 |
| 20260507011103 | 7 | 18 | 0.0 | 0.0 | 0.00 | 0.00 | 0.00 | 77 | 1014.9 |
| 20260507010604 | 7 | 18 | 0.0 | 0.0 | 0.00 | 0.00 | 0.00 | 77 | 1014.6 |
| 20260507005603 | 7 | 17 | 0.0 | 1.6 | 0.00 | 0.00 | 0.00 | 76 | 1014.6 |
| 20260507005103 | 7 | 18 | 0.0 | 1.6 | 0.00 | 0.00 | 0.00 | 76 | 1014.6 |
| 20260507004603 | 7 | 18 | 0.0 | 0.0 | 0.00 | 0.00 | 0.00 | 75 | 1014.6 |
| 20260507004103 | 7 | 18 | 0.0 | 0.0 | 0.00 | 0.00 | 0.00 | 74 | 1014.6 |
| 20260507003603 | 8 | 17 | 0.0 | 0.0 | 0.00 | 0.00 | 0.00 | 74 | 1014.6 |
| 20260507003103 | 8 | 18 | 0.0 | 0.0 | 0.00 | 0.00 | 0.00 | 74 | 1014.6 |
| 20260507002604 | 8 | 18 | 0.0 | 0.0 | 0.00 | 0.00 | 0.00 | 74 | 1014.6 |
| 20260507002103 | 8 | 18 | 0.0 | 1.6 | 0.00 | 0.00 | 0.00 | 73 | 1014.6 |
| 20260507001603 | 8 | 18 | 0.0 | 1.6 | 0.00 | 0.00 | 0.00 | 73 | 1014.6 |
| 20260507001104 | 8 | 18 | 0.0 | 0.0 | 0.00 | 0.00 | 0.00 | 72 | 1014.6 |
| 20260507000603 | 8 | 25 | 0.0 | 1.6 | 0.00 | 0.00 | 0.00 | 73 | 1014.6 |
| 20260506235604 | 8 | 32 | 0.0 | 1.6 | 0.00 | 0.00 | 0.00 | 72 | 1014.6 |
| 20260506235104 | 9 | 16 | 0.0 | 1.6 | 0.00 | 0.00 | 0.00 | 72 | 1014.2 |
| 20260506234604 | 9 | 9 | 0.0 | 1.6 | 0.00 | 0.00 | 0.00 | 72 | 1014.6 |
| 20260506234104 | 9 | 30 | 0.0 | 1.6 | 0.00 | 0.00 | 0.00 | 72 | 1014.2 |
| 20260506233603 | 9 | 30 | 0.0 | 1.6 | 0.00 | 0.00 | 0.00 | 71 | 1014.2 |
| 20260506233104 | 9 | 46 | 1.6 | 1.6 | 0.00 | 0.00 | 0.00 | 71 | 1014.6 |
| 20260506232603 | 10 | 46 | 0.0 | 1.6 | 0.00 | 0.00 | 0.00 | 72 | 1014.2 |
| 20260506232103 | 10 | 26 | 0.0 | 1.6 | 0.00 | 0.00 | 0.00 | 72 | 1014.2 |
| 20260506231604 | 10 | 355 | 1.6 | 4.8 | 0.00 | 0.00 | 0.00 | 71 | 1014.2 |
| 20260506231103 | 10 | 4 | 0.0 | 1.6 | 0.00 | 0.00 | 0.00 | 71 | 1014.6 |
| 20260506230603 | 10 | 4 | 0.0 | 1.6 | 0.00 | 0.00 | 0.00 | 71 | 1014.2 |
| 20260506230103 | 10 | 22 | 0.0 | 1.6 | 0.00 | 0.00 | 0.00 | 70 | 1014.6 |
| 20260506225603 | 10 | 4 | 0.0 | 1.6 | 0.00 | 0.00 | 0.00 | 70 | 1014.2 |